This is the latest recevied weather packets stored in our database for station/object SQ6XL-13. If no packets are shown the sender has not sent any weather packets the latest 10 day(s).
| Time | Temp. | Humidity | Pressure | Rain* | Wind** | Luminosity | Snow |
|---|---|---|---|---|---|---|---|
| 1787942335 | 19.44° C | 80% | 1013.7 hPa | 0 mm | - | - | - |
| 1787941787 | 20° C | 78% | 1013.5 hPa | 0 mm | - | - | - |
| 1787941245 | 20.56° C | 78% | 1013.5 hPa | 0 mm | - | - | - |
| 1787940695 | 20.56° C | 77% | 1013.5 hPa | 0 mm | - | - | - |
| 1787940145 | 21.11° C | 76% | 1013.3 hPa | 0 mm | - | - | - |
| 1787939625 | 21.67° C | 74% | 1013.4 hPa | 0 mm | - | - | - |
| 1787939060 | 22.22° C | 73% | 1013.4 hPa | 0 mm | - | - | - |
| 1787938575 | 22.22° C | 72% | 1013.4 hPa | 0 mm | - | - | - |
| 1787938007 | 22.78° C | 70% | 1013.4 hPa | 0 mm | - | - | - |
| 1787937485 | 23.89° C | 68% | 1013.3 hPa | 0 mm | - | - | - |
| 1787936895 | 24.44° C | 65% | 1013.5 hPa | 0 mm | - | - | - |
| 1787936415 | 25° C | 65% | 1013.3 hPa | 0 mm | - | - | - |
| 1787935845 | 25.56° C | 63% | 1013.6 hPa | 0 mm | - | - | - |
| 1787935265 | 25.56° C | 63% | 1013.3 hPa | 0 mm | - | - | - |
| 1787934695 | 25.56° C | 63% | 1013.5 hPa | 0 mm | - | - | - |
| 1787934125 | 25.56° C | 63% | 1013.7 hPa | 0 mm | - | - | - |
| 1787933590 | 25.56° C | 62% | 1013.8 hPa | 0 mm | - | - | - |
| 1787933075 | 25.56° C | 62% | 1014 hPa | 0 mm | - | - | - |
| 1787932539 | 25.56° C | 61% | 1013.8 hPa | 0 mm | - | - | - |
| 1787931955 | 26.11° C | 59% | 1013.9 hPa | 0 mm | - | - | - |
| 1787931447 | 25.56° C | 60% | 1014 hPa | 0 mm | - | - | - |
| 1787930957 | 26.11° C | 59% | 1014 hPa | 0 mm | - | - | - |
| 1787930365 | 26.67° C | 58% | 1013.9 hPa | 0 mm | - | - | - |
| 1787929780 | 26.67° C | 58% | 1013.8 hPa | 0 mm | - | - | - |
| 1787929290 | 26.67° C | 59% | 1013.6 hPa | 0 mm | - | - | - |
* Rain latest hour (hover to see other rain measurements)
** Current wind speed in m/s (hover to see current wind gust speed)